Regional Weather Roundup
Issued by NWS Upton, NY

Current Version | Previous Version | Graphics & Text | Print | Product List | Glossary Off
Versions: 1 2 3 4 5 6 7 8 9 10 11 12 13 14 15 16 17 18 19 20 21 22 23 24 25 26 27 28 29 30 31 32 33 34 35 36 37 38 39 40 41 42 43 44 45 46 47 48 49 50

834
ASUS41 KOKX 241809
RWROKX

REGIONAL WEATHER ROUNDUP
NATIONAL WEATHER SERVICE NEW YORK NY
200 PM EDT SUN SEP 24 2017

NOTE: "FAIR" INDICATES FEW OR NO CLOUDS BELOW 12,000 FEET WITH NO
SIGNIFICANT WEATHER AND/OR OBSTRUCTIONS TO VISIBILITY.

NYZ071-072-176-178-NJZ106-104-241900-
NEW YORK CITY METRO AREA

CITY           SKY/WX    TMP DP  RH WIND       PRES   REMARKS
Central Park   SUNNY     90  64  42 VRB3      30.07F HX  91
Bronx Bot Gard   N/A     88  63  42 E2        30.05F
LaGuardia APRT SUNNY     88  65  46 NE7       30.04F HX  90
Kennedy INTL   SUNNY     91  64  40 NE9       30.05F HX  92
Breezy Point     N/A     82 N/A N/A S3          N/A
Newark/Liberty SUNNY     90  61  37 VRB3      30.04F HX  90
Teterboro      SUNNY     90  62  39 NE6       30.03F HX  90
$$

NYZ177-179-078>081-241900-
LONG ISLAND NEW YORK

CITY           SKY/WX    TMP DP  RH WIND       PRES   REMARKS
Jones Beach      N/A     79 N/A N/A S7          N/A
Matinecock PT    N/A     82 N/A N/A E5          N/A
Farmingdale    SUNNY     87  65  47 NE5       30.05F
MacArthur/ISP  SUNNY     88  64  44 N5        30.04F
Shirley        SUNNY     85  64  49 SE10      30.05F
Mt Sinai Harb    N/A     81 N/A N/A CALM        N/A
Westhampton    SUNNY     83  64  52 E5        30.06F
East Hampton   FAIR      77  58  52 SE3       30.05S
Montauk          N/A     77  62  59 VRB3      30.06F
$$

NYZ052-065-067-241900-
HUDSON VALLEY

CITY           SKY/WX    TMP DP  RH WIND       PRES   REMARKS
White Plains   SUNNY     90  63  40 NW5       30.06F HX  91
Larchmont Harb   N/A     81 N/A N/A NE5         N/A
Croton On Huds   N/A     82 N/A N/A W7          N/A
Newburgh       SUNNY     86  68  54 VRB6      30.09F
Montgomery     SUNNY     87  68  52 NE6       30.07F HX  90
Poughkeepsie   SUNNY     86  64  47 CALM      30.05F
Albany         SUNNY     87  66  49 W3        30.07F
$$

NJZ001-105-106-008-010-013-015-019>022-104-241900-
NEW JERSEY

CITY           SKY/WX    TMP DP  RH WIND       PRES   REMARKS
Newark/Liberty SUNNY     90  61  37 VRB3      30.04F HX  90
Teterboro      SUNNY     90  62  39 NE6       30.03F HX  90
Caldwell       SUNNY     90  67  46 VRB5      30.05F HX  93
Somerville     NOT AVBL
Linden         NOT AVBL
Perth Amboy      N/A     81 N/A N/A SE8         N/A
Sussex         SUNNY     87  66  49 NE8       30.08F
Andover          N/A     87  64  46 CALM      30.08F
Trenton        SUNNY     89  65  44 N8        30.05F HX  91
Millville      SUNNY     90  67  46 E8        30.05F HX  93
Atlantic City  SUNNY     85  64  49 SE8       30.05F
Wrightstown    SUNNY     88  66  49 NE3       30.02F HX  90
Toms River     SUNNY     87  64  46 NE8       30.06F
Belmar         SUNNY     85  64  49 E10       30.07F
$$

PAZ047>061-062-071-241900-
EASTERN PENNSYLVANIA

CITY           SKY/WX    TMP DP  RH WIND       PRES   REMARKS
Philadelphia   MOSUNNY   90  63  40 E12       30.04F HX  91
Allentown      SUNNY     89  65  44 NE5       30.07F HX  91
Scranton       MOSUNNY   87  66  49 CALM      30.11F
$$

CTZ002-004>006-009-010-012-RIZ004-006-007-MAZ004-011-015-241900-
SOUTHERN NEW ENGLAND
 IN CT

CITY           SKY/WX    TMP DP  RH WIND       PRES   REMARKS
Bradley INTL   SUNNY     88  65  46 NW5       30.04F HX  90
Hartford       SUNNY     89  65  44 NE6       30.03F HX  91
Danbury        SUNNY     88  66  48 VRB5      30.07F HX  90
Wtrbury/Oxford SUNNY     86  65  49 CALM      30.08F
Norwalk Harbor   N/A     75 N/A N/A S6          N/A
Bridgeport     SUNNY     82  66  58 SW7       30.04F
Meriden        SUNNY     90  63  40 VRB5      30.04F HX  91
New Haven      SUNNY     81  65  58 VRB5      30.05F
Chester        FAIR      88  68  51 S8        30.06S HX  91
Groton         SUNNY     75  64  68 S8        30.05S
Wilimantic     SUNNY     91  65  41 N5        30.03F HX  93

 IN RI

CITY           SKY/WX    TMP DP  RH WIND       PRES   REMARKS
Providence     SUNNY     86  67  52 S8        30.04F
Block Island   SUNNY     78  59  51 VRB3      30.06S
Westerly       SUNNY     77  63  61 S8        30.06S
 IN MA

CITY           SKY/WX    TMP DP  RH WIND       PRES   REMARKS
Boston         SUNNY     79  64  60 SE7       30.03F
Worcester      SUNNY     84  62  47 NE3       30.08F
Westfield      SUNNY     90  62  39 NE6       30.04F HX  90
Provincetown   SUNNY     71  65  81 N5        30.05F
Nantucket      SUNNY     72  69  90 NE9       30.03F
$$

ANZ330-335-338-340-345-350-353-355-241900-
COASTAL MARINE OBSERVATIONS


STATION/POSITION TIME  SKY/WX   TEMP    WIND        PRES    VSBY  WAVE
                                AIR SEA DIR/SP/G                  HT/PER
                 (UTC)          (F)     (DEG/KT/KT) (MB)    (MI)  (FT/S)
NY HARB ENTRANCE 1650            74 73  260/  4/  4 1017.4          3/11
20 S FIRE ISLAND 1650            70 69  320/  2/  4 1018.1          4/13
GREAT SOUTH BAY  1730            75 74  210/  2/  6   N/A
23 SSW MONTAUK P 1650            68 66              1018.2          4/14
15 E BARNEGAT LI 1730               71                N/A           4/14
HUDSON CANYON    1650            69 69  360/  6/  8 1017.2          6/14
KINGS POINT      1742            86 72  150/  2/  5 1018.3
EXECUTION ROCKS  1745            80     100/  4/  4   N/A
WESTERN LI SOUND NOT AVBL
CENTRAL LI SOUND 1730            74     230/  6/  6   N/A           1
EASTERN LI SOUND NOT AVBL
ROBBINS REEF     1742            85      20/  3/  4 1018.1
$$


>>>>>>>>>>>>>>>>>>>>>>>>>>>> KEY <<<<<<<<<<<<<<<<<<<<<<<<<<<
>                                                          <
>     SKY/WX - Sky Condition/Present Weather               <
>     TMP    - Temperature in Fahrenheit                   <
>     DP     - Dew Point in Fahrenheit                     <
>     RH     - Relative Humidity in Percent                <
>     WIND   - Direction (from) and Speed in MPH           <
>     PRES   - Mean Sea Level Pressure (inches of Hg)      <
>     WCI    - Wind Chill Index                            <
>     VSB    - VISIBILITY IN MILES                         <
>     HX     - HEAT INDEX                                  <
>     TC     - TEMPERATURE IN CELSIUS                      <
>     VRB    - VARIABLE WIND DIRECTION                     <
>                                                          <
>>>>>>>>>>>>>>>>>>>>>>>>>>>> KEY <<<<<<<<<<<<<<<<<<<<<<<<<<<




USA.gov is the U.S. government's official web portal to all federal, state and local government web resources and services.